OPS 4682 DEB, 38367

Orbit data source: Space-Track

OPS 4682 DEB, 38367 is space debris in LEO originally from a launch on Sat, 03 Apr 1965 UTC launched from the Air Force Western Test Range (AFWTR). Debris objects in space refer to the collection of defunct objects orbiting the Earth. Examples of debris include non-operational satellites, rocket bodies, and fragments generated from explosions, collisions, or faulty payload assembly.

Loading next visibility...
Identifier
38367, 1965-027BU
Orbit
LEO
Country
Flag of USUS
Related business
Manufacturer
Unknown
Mission
Spacecraft
Bus & Motor
Unknown
Mass
Unknown
Launch date (UTC)
1965-04-03 (61 years ago)
Launch vehicle
Unknown
Launch site
Air Force Western Test Range (AFWTR)
Object type
Payload
Rocket body
Debris
Shape & HBR
Unknown shape, 0.1 m
Radar Cross Section
Medium (>0.1 m² and <1 m²)

Expand to show TLE details & history
Last TLE update: 2 days ago

TLE from 2 days ago
0 OPS 4682 DEB
1 38367U 65027BU  26261.60687475  .00000556  00000-0  19080-2 0  9993
2 38367  90.2514  12.8776 0033850 244.9446 114.8159 12.96738331320987
Epoch: 2026-09-18T14:33Z
TLE epoch observation values (Epoch: 2026-09-18T14:33:53.978Z)
Latitude
-0.00001°
Longitude
156.87535°
Altitude
1,288.718 km
Speed
7.207 km/s
True Right ascension
00h 51m 30s
True Declination
0° 00' 00"
Sunlit
Object was in full shadow at epoch
Visualization orbit readout
Latitude
Unknown
Longitude
Unknown
Altitude
Unknown
Speed
Unknown
Apparent Right ascension
Unknown
Apparent Declination
Unknown
Sunlit
N/A
Visualization observer readout
Local Sidereal Time
09:46:07
Azimuth
Unknown
Elevation
Unknown
Doppler factor
Unknown
Orbital elements
Apogee altitude
1,297.92 km
Perigee altitude
1,246.129 km
Semi-major axis
7,650.162 km
Eccentricity
0.00339
Inclination
90.2514°
RAAN
12.8776°
Arg. of periapsis
244.9446°
True anomaly
115.16735°
Mean anomaly
114.8159°
Eccentric anomaly
114.99169°
Mean motion
3.24367 °/min
Orbital period
110.99 mins
BSTAR
0.001908
Loading maneuver chart data...
Computing Atmospheric mass density...
Loading historical data...
Loading historical data...
Loading historical data...
Loading historical data...
Loading historical data...
Loading historical data...
Loading historical data...

Documentation

Showing up to 5 results
|